Time,TemperatureF,DewpointF,PressureIn,WindDirection,WindDirectionDegrees,WindSpeedMPH,WindSpeedGustMPH,Humidity,HourlyPrecipIn,Conditions,Clouds,dailyrainin,SoftwareType,DateUTC
2013-01-07 00:00:00,35.1,31.0,22.74,WNW,287,10.4,10.4,85,0.00,RA,,0.00,WeatherDisplay:10.37,2013-01-07 05:00:00,
2013-01-07 00:02:00,35.1,31.0,22.74,West,263,6.9,6.9,85,0.00,RA,,0.00,WeatherDisplay:10.37,2013-01-07 05:02:00,
2013-01-07 00:07:00,34.9,30.8,22.74,West,276,11.5,11.5,85,0.00,RA,,0.00,WeatherDisplay:10.37,2013-01-07 05:07:00,
2013-01-07 00:12:00,34.8,31.0,22.74,West,267,6.9,6.9,86,0.00,CLR,,0.00,WeatherDisplay:10.37,2013-01-07 05:12:00,
2013-01-07 00:17:00,34.6,30.8,22.74,West,275,13.8,13.8,86,0.00,CLR,,0.00,WeatherDisplay:10.37,2013-01-07 05:17:00,
2013-01-07 00:22:00,34.4,30.6,22.74,WNW,288,11.5,11.5,86,0.00,CLR,,0.00,WeatherDisplay:10.37,2013-01-07 05:22:00,
2013-01-07 00:27:00,34.4,30.9,22.74,West,279,11.5,11.5,87,0.00,CLR,,0.00,WeatherDisplay:10.37,2013-01-07 05:27:00,
2013-01-07 00:32:00,34.4,30.9,22.74,WNW,296,3.5,3.5,87,0.00,CLR,,0.00,WeatherDisplay:10.37,2013-01-07 05:32:00,
2013-01-07 00:37:00,34.2,30.7,22.74,SSW,211,5.8,5.8,87,0.00,CLR,,0.00,WeatherDisplay:10.37,2013-01-07 05:37:00,
2013-01-07 00:42:00,34.1,30.9,22.74,West,263,6.9,6.9,88,0.00,CLR,,0.00,WeatherDisplay:10.37,2013-01-07 05:42:00,
2013-01-07 00:47:00,34.1,30.9,22.74,West,260,6.9,6.9,88,0.00,CLR,,0.00,WeatherDisplay:10.37,2013-01-07 05:47:00,
2013-01-07 00:52:00,34.0,30.8,22.74,West,269,10.4,10.4,88,0.00,CLR,,0.00,WeatherDisplay:10.37,2013-01-07 05:52:00,
2013-01-07 00:57:00,34.0,30.8,22.74,WNW,286,6.9,6.9,88,0.00,CLR,,0.00,WeatherDisplay:10.37,2013-01-07 05:57:00,
2013-01-07 01:02:00,33.9,30.7,22.74,West,268,6.9,6.9,88,0.00,CLR,,0.00,WeatherDisplay:10.37,2013-01-07 06:02:00,
2013-01-07 01:07:00,33.8,30.6,22.74,West,275,8.1,8.1,88,0.00,CLR,,0.00,WeatherDisplay:10.37,2013-01-07 06:07:00,
2013-01-07 01:12:00,33.8,30.6,22.74,West,279,6.9,6.9,88,0.00,CLR,,0.00,WeatherDisplay:10.37,2013-01-07 06:12:00,
2013-01-07 01:17:00,33.7,30.5,22.74,West,276,8.1,8.1,88,0.00,CLR,,0.00,WeatherDisplay:10.37,2013-01-07 06:17:00,
2013-01-07 01:22:00,33.6,30.4,22.74,WSW,237,8.1,8.1,88,0.00,CLR,,0.00,WeatherDisplay:10.37,2013-01-07 06:22:00,
2013-01-07 01:27:00,33.5,30.3,22.74,West,266,8.1,8.1,88,0.00,CLR,,0.00,WeatherDisplay:10.37,2013-01-07 06:27:00,
2013-01-07 01:32:00,33.5,30.3,22.74,WSW,244,9.2,9.2,88,0.00,CLR,,0.00,WeatherDisplay:10.37,2013-01-07 06:32:00,
2013-01-07 01:37:00,33.4,30.2,22.74,WSW,249,11.5,11.5,88,0.00,CLR,,0.00,WeatherDisplay:10.37,2013-01-07 06:37:00,
2013-01-07 01:42:00,33.3,30.1,22.74,WSW,244,6.9,6.9,88,0.00,CLR,,0.00,WeatherDisplay:10.37,2013-01-07 06:42:00,
2013-01-07 01:47:00,33.2,30.0,22.74,West,280,5.0,5.0,88,0.00,CLR,,0.00,WeatherDisplay:10.37,2013-01-07 06:47:00,
2013-01-07 01:52:00,33.1,29.9,22.74,West,280,8.1,8.1,88,0.00,CLR,,0.00,WeatherDisplay:10.37,2013-01-07 06:52:00,
2013-01-07 01:57:00,33.1,29.9,22.74,West,266,4.6,4.6,88,0.00,CLR,,0.00,WeatherDisplay:10.37,2013-01-07 06:57:00,
2013-01-07 02:02:00,33.0,29.8,22.74,West,271,9.2,9.2,88,0.00,CLR,,0.00,WeatherDisplay:10.37,2013-01-07 07:02:00,
2013-01-07 02:07:00,32.9,29.7,22.74,West,277,8.1,8.1,88,0.00,CLR,,0.00,WeatherDisplay:10.37,2013-01-07 07:07:00,
2013-01-07 02:12:00,32.9,29.7,22.74,West,273,9.0,9.0,88,0.00,CLR,,0.00,WeatherDisplay:10.37,2013-01-07 07:12:00,
2013-01-07 02:17:00,32.8,29.6,22.74,WNW,287,7.0,7.0,88,0.00,CLR,,0.00,WeatherDisplay:10.37,2013-01-07 07:17:00,
2013-01-07 02:22:00,32.7,29.5,22.74,WNW,288,5.0,5.0,88,0.00,CLR,,0.00,WeatherDisplay:10.37,2013-01-07 07:22:00,
2013-01-07 02:27:00,32.6,29.7,22.74,West,277,9.2,9.2,89,0.00,CLR,,0.00,WeatherDisplay:10.37,2013-01-07 07:27:00,
2013-01-07 02:32:00,32.7,29.8,22.74,WSW,240,9.0,9.0,89,0.00,CLR,,0.00,WeatherDisplay:10.37,2013-01-07 07:32:00,
2013-01-07 02:37:00,32.6,29.7,22.74,West,269,11.5,11.5,89,0.00,CLR,,0.00,WeatherDisplay:10.37,2013-01-07 07:37:00,
2013-01-07 02:42:00,32.5,29.9,22.74,WNW,285,10.4,10.4,90,0.00,CLR,,0.00,WeatherDisplay:10.37,2013-01-07 07:42:00,
2013-01-07 02:47:00,32.4,29.5,22.74,WSW,252,3.5,0.0,89,0.00,CLR,,0.00,WeatherDisplay:10.37,2013-01-07 07:47:00,
2013-01-07 02:52:00,32.4,29.5,22.74,West,264,8.1,8.1,89,0.00,CLR,,0.00,WeatherDisplay:10.37,2013-01-07 07:52:00,
2013-01-07 02:57:00,32.4,29.5,22.74,WNW,294,9.2,9.2,89,0.00,CLR,,0.00,WeatherDisplay:10.37,2013-01-07 07:57:00,
2013-01-07 03:02:00,32.4,29.2,22.74,West,269,6.9,6.9,88,0.00,CLR,,0.00,WeatherDisplay:10.37,2013-01-07 08:02:00,
2013-01-07 03:07:00,32.3,29.1,22.74,West,271,8.0,8.0,88,0.00,CLR,,0.00,WeatherDisplay:10.37,2013-01-07 08:07:00,
2013-01-07 03:12:00,32.3,29.1,22.74,WSW,257,11.5,11.5,88,0.00,CLR,,0.00,WeatherDisplay:10.37,2013-01-07 08:12:00,
2013-01-07 03:17:00,32.3,28.9,22.74,WNW,283,8.1,8.1,87,0.00,CLR,,0.00,WeatherDisplay:10.37,2013-01-07 08:17:00,
2013-01-07 03:22:00,32.2,28.8,22.74,WSW,258,8.1,8.1,87,0.00,CLR,,0.00,WeatherDisplay:10.37,2013-01-07 08:22:00,
2013-01-07 03:27:00,32.2,28.8,22.74,SW,225,6.9,6.9,87,0.00,CLR,,0.00,WeatherDisplay:10.37,2013-01-07 08:27:00,
2013-01-07 03:32:00,32.2,28.8,22.74,West,272,9.2,9.2,87,0.00,CLR,,0.00,WeatherDisplay:10.37,2013-01-07 08:32:00,
2013-01-07 03:37:00,32.1,28.7,22.74,West,279,11.5,11.5,87,0.00,CLR,,0.00,WeatherDisplay:10.37,2013-01-07 08:37:00,
2013-01-07 03:42:00,32.0,28.3,22.74,West,263,8.1,8.1,86,0.00,CLR,,0.00,WeatherDisplay:10.37,2013-01-07 08:42:00,
2013-01-07 03:47:00,31.9,28.2,22.74,West,278,8.1,8.1,86,0.00,CLR,,0.00,WeatherDisplay:10.37,2013-01-07 08:47:00,
2013-01-07 03:52:00,31.8,27.8,22.74,West,281,3.5,3.5,85,0.00,CLR,,0.00,WeatherDisplay:10.37,2013-01-07 08:52:00,
2013-01-07 03:57:00,31.8,27.8,22.74,West,268,10.0,10.0,85,0.00,CLR,,0.00,WeatherDisplay:10.37,2013-01-07 08:57:00,
2013-01-07 04:02:00,31.8,27.8,22.74,West,271,11.5,11.5,85,0.00,CLR,,0.00,WeatherDisplay:10.37,2013-01-07 09:02:00,
2013-01-07 04:07:00,31.7,27.7,22.74,West,280,8.1,8.1,85,0.00,CLR,,0.00,WeatherDisplay:10.37,2013-01-07 09:07:00,
2013-01-07 04:12:00,31.7,27.4,22.74,West,265,7.0,7.0,84,0.00,CLR,,0.00,WeatherDisplay:10.37,2013-01-07 09:12:00,
2013-01-07 04:17:00,31.7,27.4,22.74,West,277,4.6,4.6,84,0.00,CLR,,0.00,WeatherDisplay:10.37,2013-01-07 09:17:00,
2013-01-07 04:22:00,31.7,27.4,22.74,West,280,6.9,6.9,84,0.00,CLR,,0.00,WeatherDisplay:10.37,2013-01-07 09:22:00,
2013-01-07 04:27:00,31.7,27.4,22.74,West,272,7.0,7.0,84,0.00,CLR,,0.00,WeatherDisplay:10.37,2013-01-07 09:27:00,
2013-01-07 04:32:00,31.7,27.4,22.74,WNW,292,3.5,3.5,84,0.00,CLR,,0.00,WeatherDisplay:10.37,2013-01-07 09:32:00,
2013-01-07 04:37:00,31.7,27.4,22.74,West,279,3.5,3.5,84,0.00,CLR,,0.00,WeatherDisplay:10.37,2013-01-07 09:37:00,
2013-01-07 04:42:00,31.7,27.4,22.74,West,281,6.9,6.9,84,0.00,CLR,,0.00,WeatherDisplay:10.37,2013-01-07 09:42:00,
2013-01-07 04:47:00,31.7,27.4,22.74,West,271,3.5,0.0,84,0.00,CLR,,0.00,WeatherDisplay:10.37,2013-01-07 09:47:00,
2013-01-07 04:52:00,31.7,27.4,22.74,West,277,6.9,6.9,84,0.00,CLR,,0.00,WeatherDisplay:10.37,2013-01-07 09:52:00,
2013-01-07 04:57:00,31.7,27.4,22.74,WNW,284,3.5,3.5,84,0.00,CLR,,0.00,WeatherDisplay:10.37,2013-01-07 09:57:00,
2013-01-07 05:02:00,31.6,27.3,22.74,West,271,4.6,4.6,84,0.00,CLR,,0.00,WeatherDisplay:10.37,2013-01-07 10:02:00,
2013-01-07 05:08:00,31.6,27.3,22.74,West,264,4.6,4.6,84,0.00,CLR,,0.00,WeatherDisplay:10.37,2013-01-07 10:08:00,
2013-01-07 05:12:00,31.5,27.2,22.74,West,267,1.1,0.0,84,0.00,CLR,,0.00,WeatherDisplay:10.37,2013-01-07 10:12:00,
2013-01-07 05:17:00,31.6,27.3,22.74,West,267,0.0,0.0,84,0.00,CLR,,0.00,WeatherDisplay:10.37,2013-01-07 10:17:00,
2013-01-07 05:23:00,31.5,27.2,22.74,West,267,4.0,4.0,84,0.00,CLR,,0.00,WeatherDisplay:10.37,2013-01-07 10:23:00,
2013-01-07 05:28:00,31.5,26.9,22.74,West,267,3.5,3.5,83,0.00,CLR,,0.00,WeatherDisplay:10.37,2013-01-07 10:28:00,
2013-01-07 05:33:00,31.4,27.1,22.74,West,267,0.0,0.0,84,0.00,CLR,,0.00,WeatherDisplay:10.37,2013-01-07 10:33:00,
2013-01-07 05:38:00,31.5,27.5,22.74,West,267,3.5,3.5,85,0.00,CLR,,0.00,WeatherDisplay:10.37,2013-01-07 10:38:00,
2013-01-07 05:43:00,31.5,27.5,22.74,West,267,0.0,0.0,85,0.00,CLR,,0.00,WeatherDisplay:10.37,2013-01-07 10:43:00,
2013-01-07 05:48:00,31.6,27.6,22.74,West,267,2.3,2.3,85,0.00,CLR,,0.00,WeatherDisplay:10.37,2013-01-07 10:48:00,
2013-01-07 05:53:00,31.6,27.9,22.74,West,267,0.0,0.0,86,0.00,CLR,,0.00,WeatherDisplay:10.37,2013-01-07 10:53:00,
2013-01-07 05:58:00,31.7,28.0,22.74,West,267,0.0,0.0,86,0.00,CLR,,0.00,WeatherDisplay:10.37,2013-01-07 10:58:00,
2013-01-07 06:03:00,31.7,27.7,22.74,West,267,0.0,0.0,85,0.00,CLR,,0.00,WeatherDisplay:10.37,2013-01-07 11:03:00,
2013-01-07 06:08:00,31.5,27.2,22.74,West,267,3.5,3.5,84,0.00,CLR,,0.00,WeatherDisplay:10.37,2013-01-07 11:08:00,
2013-01-07 06:13:00,31.4,26.8,22.74,West,267,4.6,4.6,83,0.00,CLR,,0.00,WeatherDisplay:10.37,2013-01-07 11:13:00,
2013-01-07 06:18:00,31.4,27.1,22.74,WSW,257,3.5,3.5,84,0.00,CLR,,0.00,WeatherDisplay:10.37,2013-01-07 11:18:00,
2013-01-07 06:23:00,31.3,26.7,22.74,West,263,5.0,5.0,83,0.00,CLR,,0.00,WeatherDisplay:10.37,2013-01-07 11:23:00,
2013-01-07 06:28:00,31.3,26.7,22.74,West,267,3.5,3.5,83,0.00,CLR,,0.00,WeatherDisplay:10.37,2013-01-07 11:28:00,
2013-01-07 06:33:00,31.3,27.0,22.74,West,267,0.0,0.0,84,0.00,CLR,,0.00,WeatherDisplay:10.37,2013-01-07 11:33:00,
2013-01-07 06:38:00,31.2,26.6,22.74,West,267,2.3,2.3,83,0.00,CLR,,0.00,WeatherDisplay:10.37,2013-01-07 11:38:00,
2013-01-07 06:43:00,31.3,27.0,22.74,West,268,4.0,4.0,84,0.00,CLR,,0.00,WeatherDisplay:10.37,2013-01-07 11:43:00,
2013-01-07 06:48:00,31.3,26.7,22.74,WSW,256,4.0,4.0,83,0.00,CLR,,0.00,WeatherDisplay:10.37,2013-01-07 11:48:00,
2013-01-07 06:53:00,31.2,26.6,22.74,West,277,5.8,5.8,83,0.00,CLR,,0.00,WeatherDisplay:10.37,2013-01-07 11:53:00,
2013-01-07 06:58:00,31.2,26.9,22.74,West,276,1.1,1.1,84,0.00,CLR,,0.00,WeatherDisplay:10.37,2013-01-07 11:58:00,
2013-01-07 07:03:00,31.2,26.9,22.74,West,276,3.5,3.5,84,0.00,CLR,,0.00,WeatherDisplay:10.37,2013-01-07 12:03:00,
2013-01-07 07:08:00,31.2,26.6,22.74,WSW,250,5.8,5.8,83,0.00,CLR,,0.00,WeatherDisplay:10.37,2013-01-07 12:08:00,
2013-01-07 07:13:00,31.2,26.6,22.74,West,269,0.0,0.0,83,0.00,CLR,,0.00,WeatherDisplay:10.37,2013-01-07 12:13:00,
2013-01-07 07:18:00,31.2,26.9,22.74,SW,221,3.5,3.5,84,0.00,CLR,,0.00,WeatherDisplay:10.37,2013-01-07 12:18:00,
2013-01-07 07:23:00,31.2,26.6,22.74,West,259,3.5,3.5,83,0.00,CLR,,0.00,WeatherDisplay:10.37,2013-01-07 12:23:00,
2013-01-07 07:28:00,31.2,26.9,22.74,West,261,3.5,3.5,84,0.00,CLR,,0.00,WeatherDisplay:10.37,2013-01-07 12:28:00,
2013-01-07 07:33:00,31.2,26.9,22.74,West,261,3.5,3.5,84,0.00,CLR,,0.00,WeatherDisplay:10.37,2013-01-07 12:33:00,
2013-01-07 07:38:00,31.2,26.9,22.74,West,261,3.5,3.5,84,0.00,CLR,,0.00,WeatherDisplay:10.37,2013-01-07 12:38:00,
2013-01-07 07:43:00,31.3,27.0,22.74,West,261,0.0,0.0,84,0.00,CLR,,0.00,WeatherDisplay:10.37,2013-01-07 12:43:00,
2013-01-07 07:48:00,31.3,27.0,22.74,WSW,240,3.5,3.5,84,0.00,CLR,,0.00,WeatherDisplay:10.37,2013-01-07 12:48:00,
2013-01-07 07:53:00,31.2,26.6,22.74,WSW,254,3.5,3.5,83,0.00,CLR,,0.00,WeatherDisplay:10.37,2013-01-07 12:53:00,
2013-01-07 07:58:00,31.2,26.6,22.74,West,266,3.5,0.0,83,0.00,CLR,,0.00,WeatherDisplay:10.37,2013-01-07 12:58:00,
2013-01-07 08:03:00,31.2,26.9,22.74,West,266,0.0,0.0,84,0.00,CLR,,0.00,WeatherDisplay:10.37,2013-01-07 13:03:00,
2013-01-07 08:08:00,31.2,26.9,22.74,West,266,3.5,3.5,84,0.00,CLR,,0.00,WeatherDisplay:10.37,2013-01-07 13:08:00,
2013-01-07 08:13:00,31.2,26.9,22.74,West,266,0.0,0.0,84,0.00,CLR,,0.00,WeatherDisplay:10.37,2013-01-07 13:13:00,
2013-01-07 08:18:00,31.2,26.9,22.74,West,266,0.0,0.6,84,0.00,CLR,,0.00,WeatherDisplay:10.37,2013-01-07 13:18:00,
2013-01-07 08:23:00,31.2,26.9,22.74,West,265,3.5,0.0,84,0.00,CLR,,0.00,WeatherDisplay:10.37,2013-01-07 13:23:00,
2013-01-07 08:28:00,31.2,26.9,22.74,West,266,0.0,0.0,84,0.00,CLR,,0.00,WeatherDisplay:10.37,2013-01-07 13:28:00,
2013-01-07 08:33:00,31.2,26.6,22.74,West,265,3.5,3.5,83,0.00,CLR,,0.00,WeatherDisplay:10.37,2013-01-07 13:33:00,
2013-01-07 08:38:00,31.2,26.9,22.74,WSW,245,3.5,3.5,84,0.00,CLR,,0.00,WeatherDisplay:10.37,2013-01-07 13:38:00,
2013-01-07 08:43:00,31.3,26.7,22.74,WSW,242,3.5,3.5,83,0.00,CLR,,0.00,WeatherDisplay:10.37,2013-01-07 13:43:00,
2013-01-07 08:48:00,31.4,26.8,22.74,WSW,246,3.5,3.5,83,0.00,CLR,,0.00,WeatherDisplay:10.37,2013-01-07 13:48:00,
2013-01-07 08:53:00,31.3,26.7,22.74,WSW,246,3.5,3.5,83,0.00,CLR,,0.00,WeatherDisplay:10.37,2013-01-07 13:53:00,
2013-01-07 08:58:00,31.3,26.7,22.74,WSW,245,0.0,0.0,83,0.00,CLR,,0.00,WeatherDisplay:10.37,2013-01-07 13:58:00,
2013-01-07 09:03:00,31.3,26.7,22.74,WSW,241,6.9,6.9,83,0.00,CLR,,0.00,WeatherDisplay:10.37,2013-01-07 14:03:00,
2013-01-07 09:08:00,31.4,26.8,22.74,WSW,248,3.5,3.5,83,0.00,CLR,,0.00,WeatherDisplay:10.37,2013-01-07 14:08:00,
2013-01-07 09:13:00,31.5,26.9,22.74,West,271,8.1,8.1,83,0.00,CLR,,0.00,WeatherDisplay:10.37,2013-01-07 14:13:00,
2013-01-07 09:18:00,31.5,26.9,22.74,West,269,6.9,6.9,83,0.00,CLR,,0.00,WeatherDisplay:10.37,2013-01-07 14:18:00,
2013-01-07 09:23:00,31.6,27.0,22.74,West,267,5.8,5.8,83,0.00,CLR,,0.00,WeatherDisplay:10.37,2013-01-07 14:23:00,
2013-01-07 09:28:00,31.7,27.1,22.74,West,271,6.9,6.9,83,0.00,CLR,,0.00,WeatherDisplay:10.37,2013-01-07 14:28:00,
2013-01-07 09:33:00,31.7,27.1,22.74,West,267,8.1,8.1,83,0.00,CLR,,0.00,WeatherDisplay:10.37,2013-01-07 14:33:00,
2013-01-07 09:38:00,31.8,27.2,22.74,WSW,242,3.5,3.5,83,0.00,CLR,,0.00,WeatherDisplay:10.37,2013-01-07 14:38:00,
2013-01-07 09:44:00,31.9,27.3,22.74,WSW,250,4.6,4.6,83,0.00,CLR,,0.00,WeatherDisplay:10.37,2013-01-07 14:44:00,
2013-01-07 09:49:00,31.9,27.3,22.74,WSW,249,3.5,3.5,83,0.00,CLR,,0.00,WeatherDisplay:10.37,2013-01-07 14:49:00,
2013-01-07 09:54:00,32.0,27.4,22.74,SW,232,5.8,5.8,83,0.00,CLR,,0.00,WeatherDisplay:10.37,2013-01-07 14:54:00,
2013-01-07 09:59:00,32.0,27.1,22.74,WSW,238,5.8,5.8,82,0.00,CLR,,0.00,WeatherDisplay:10.37,2013-01-07 14:59:00,
2013-01-07 10:04:00,32.1,27.2,22.74,WSW,242,6.0,6.0,82,0.00,CLR,,0.00,WeatherDisplay:10.37,2013-01-07 15:04:00,
2013-01-07 10:09:00,32.0,27.1,22.74,WSW,238,5.8,5.8,82,0.00,CLR,,0.00,WeatherDisplay:10.37,2013-01-07 15:09:00,
2013-01-07 10:14:00,32.1,27.2,22.74,West,263,5.8,5.8,82,0.00,CLR,,0.00,WeatherDisplay:10.37,2013-01-07 15:14:00,
2013-01-07 10:19:00,32.2,27.3,22.74,SW,223,4.6,4.6,82,0.00,CLR,,0.00,WeatherDisplay:10.37,2013-01-07 15:19:00,
2013-01-07 10:24:00,32.3,27.4,31.40,WSW,250,4.6,4.6,82,0.00,CLR,,0.00,WeatherDisplay:10.37,2013-01-07 15:24:00,
2013-01-07 10:29:00,32.5,27.6,22.74,WSW,242,5.8,5.8,82,0.00,CLR,,0.00,WeatherDisplay:10.37,2013-01-07 15:29:00,
2013-01-07 10:34:00,32.6,27.7,22.74,SW,227,3.5,3.5,82,0.00,CLR,,0.00,WeatherDisplay:10.37,2013-01-07 15:34:00,
2013-01-07 10:39:00,32.7,27.5,22.74,WSW,252,5.8,5.8,81,0.00,CLR,,0.00,WeatherDisplay:10.37,2013-01-07 15:39:00,
2013-01-07 10:44:00,32.7,27.5,22.74,West,262,4.6,4.6,81,0.00,CLR,,0.00,WeatherDisplay:10.37,2013-01-07 15:44:00,
2013-01-07 10:49:00,32.7,27.5,22.74,SW,235,2.3,2.3,81,0.00,CLR,,0.00,WeatherDisplay:10.37,2013-01-07 15:49:00,
2013-01-07 10:54:00,32.8,27.6,22.74,West,259,5.0,5.0,81,0.00,CLR,,0.00,WeatherDisplay:10.37,2013-01-07 15:54:00,
2013-01-07 10:59:00,32.6,27.1,22.74,SW,228,3.5,3.5,80,0.00,CLR,,0.00,WeatherDisplay:10.37,2013-01-07 15:59:00,
2013-01-07 11:04:00,32.7,27.5,22.74,SW,227,2.3,2.3,81,0.00,CLR,,0.00,WeatherDisplay:10.37,2013-01-07 16:04:00,
2013-01-07 11:09:00,33.0,27.8,22.74,WSW,239,5.8,5.8,81,0.00,CLR,,0.00,WeatherDisplay:10.37,2013-01-07 16:09:00,
2013-01-07 11:14:00,33.1,27.6,22.74,WSW,241,5.8,5.8,80,0.00,CLR,,0.00,WeatherDisplay:10.37,2013-01-07 16:14:00,
2013-01-07 11:19:00,33.0,27.5,22.74,WSW,237,0.0,0.0,80,0.00,CLR,,0.00,WeatherDisplay:10.37,2013-01-07 16:19:00,
2013-01-07 11:24:00,33.0,27.5,22.74,SW,236,1.0,0.0,80,0.00,CLR,,0.00,WeatherDisplay:10.37,2013-01-07 16:24:00,
2013-01-07 11:29:00,33.0,27.2,22.74,SW,236,3.5,3.5,79,0.00,CLR,,0.00,WeatherDisplay:10.37,2013-01-07 16:29:00,
2013-01-07 11:34:00,32.9,27.1,22.74,SW,225,0.0,0.0,79,0.00,CLR,,0.00,WeatherDisplay:10.37,2013-01-07 16:34:00,
2013-01-07 11:39:00,33.2,27.7,22.74,WSW,239,3.5,3.5,80,0.00,CLR,,0.00,WeatherDisplay:10.37,2013-01-07 16:39:00,
2013-01-07 11:44:00,33.4,27.6,22.74,WSW,238,3.5,3.5,79,0.00,CLR,,0.00,WeatherDisplay:10.37,2013-01-07 16:44:00,
2013-01-07 11:49:00,33.8,28.0,22.74,West,263,0.0,0.1,79,0.00,CLR,,0.00,WeatherDisplay:10.37,2013-01-07 16:49:00,
2013-01-07 11:54:00,34.2,28.4,22.74,West,263,3.5,3.5,79,0.00,CLR,,0.00,WeatherDisplay:10.37,2013-01-07 16:54:00,
2013-01-07 11:59:00,34.4,28.6,22.74,West,263,2.3,2.3,79,0.00,CLR,,0.00,WeatherDisplay:10.37,2013-01-07 16:59:00,
2013-01-07 12:04:00,34.4,28.2,22.74,West,263,1.0,0.0,78,0.00,CLR,,0.00,WeatherDisplay:10.37,2013-01-07 17:04:00,
2013-01-07 12:09:00,34.5,28.3,22.74,West,263,2.3,0.0,78,0.00,CLR,,0.00,WeatherDisplay:10.37,2013-01-07 17:09:00,
2013-01-07 12:14:00,34.9,28.4,22.74,SW,235,3.5,3.5,77,0.00,CLR,,0.00,WeatherDisplay:10.37,2013-01-07 17:14:00,
2013-01-07 12:19:00,34.8,28.3,22.74,SW,236,4.0,4.0,77,0.00,CLR,,0.00,WeatherDisplay:10.37,2013-01-07 17:19:00,
2013-01-07 12:24:00,34.4,27.9,22.74,SW,236,0.0,0.0,77,0.00,CLR,,0.00,WeatherDisplay:10.37,2013-01-07 17:24:00,
2013-01-07 12:29:00,34.4,27.9,22.74,WSW,238,0.0,0.0,77,0.00,CLR,,0.00,WeatherDisplay:10.37,2013-01-07 17:29:00,
2013-01-07 12:34:00,34.8,28.3,22.74,WSW,238,2.3,2.3,77,0.00,CLR,,0.00,WeatherDisplay:10.37,2013-01-07 17:34:00,
2013-01-07 12:39:00,35.1,28.0,22.74,WSW,238,0.0,0.0,75,0.00,CLR,,0.00,WeatherDisplay:10.37,2013-01-07 17:39:00,
2013-01-07 12:44:00,34.8,27.0,22.74,WSW,238,0.0,0.0,73,0.00,CLR,,0.00,WeatherDisplay:10.37,2013-01-07 17:44:00,
2013-01-07 12:49:00,34.5,27.1,22.74,WSW,238,0.0,0.0,74,0.00,CLR,,0.00,WeatherDisplay:10.37,2013-01-07 17:49:00,
2013-01-07 12:54:00,34.7,26.9,22.74,West,277,3.5,3.5,73,0.00,CLR,,0.00,WeatherDisplay:10.37,2013-01-07 17:54:00,
2013-01-07 12:59:00,34.9,26.8,22.74,West,276,3.5,3.5,72,0.00,CLR,,0.00,WeatherDisplay:10.37,2013-01-07 17:59:00,
2013-01-07 13:04:00,35.0,26.9,22.74,West,277,2.3,2.3,72,0.00,CLR,,0.00,WeatherDisplay:10.37,2013-01-07 18:04:00,
2013-01-07 13:09:00,35.2,27.1,22.74,West,277,1.0,0.0,72,0.00,CLR,,0.00,WeatherDisplay:10.37,2013-01-07 18:09:00,
2013-01-07 13:14:00,35.3,26.8,22.74,West,277,0.0,0.0,71,0.00,CLR,,0.00,WeatherDisplay:10.37,2013-01-07 18:14:00,
2013-01-07 13:19:00,35.3,26.8,22.74,West,277,3.5,3.5,71,0.00,CLR,,0.00,WeatherDisplay:10.37,2013-01-07 18:19:00,
2013-01-07 13:24:00,35.1,26.6,22.74,SW,236,6.9,6.9,71,0.00,CLR,,0.00,WeatherDisplay:10.37,2013-01-07 18:24:00,
2013-01-07 13:29:00,34.8,26.7,22.74,SSE,151,3.5,3.5,72,0.00,CLR,,0.00,WeatherDisplay:10.37,2013-01-07 18:29:00,
2013-01-07 13:34:00,34.4,26.6,22.74,WSW,237,2.0,2.0,73,0.00,CLR,,0.00,WeatherDisplay:10.37,2013-01-07 18:34:00,
2013-01-07 13:39:00,34.4,26.6,22.74,SW,232,3.5,0.0,73,0.00,CLR,,0.00,WeatherDisplay:10.37,2013-01-07 18:39:00,
2013-01-07 13:44:00,34.4,26.6,22.74,SW,232,2.3,0.0,73,0.00,CLR,,0.00,WeatherDisplay:10.37,2013-01-07 18:44:00,
2013-01-07 13:49:00,34.4,26.6,22.74,SW,232,0.0,0.0,73,0.00,CLR,,0.00,WeatherDisplay:10.37,2013-01-07 18:49:00,
2013-01-07 13:54:00,34.2,26.1,22.74,SW,232,0.0,0.0,72,0.00,CLR,,0.00,WeatherDisplay:10.37,2013-01-07 18:54:00,
2013-01-07 13:59:00,34.0,26.3,22.74,SW,232,0.0,0.0,73,0.00,CLR,,0.00,WeatherDisplay:10.37,2013-01-07 18:59:00,
2013-01-07 14:04:00,34.2,26.4,22.74,SSE,157,0.0,0.0,73,0.00,CLR,,0.00,WeatherDisplay:10.37,2013-01-07 19:04:00,
2013-01-07 14:09:00,34.3,26.5,22.74,West,265,4.0,4.0,73,0.00,CLR,,0.00,WeatherDisplay:10.37,2013-01-07 19:09:00,
2013-01-07 14:14:00,34.4,26.6,22.74,SW,230,3.5,3.5,73,0.00,CLR,,0.00,WeatherDisplay:10.37,2013-01-07 19:14:00,
2013-01-07 14:19:00,34.7,26.6,22.74,WSW,248,5.0,5.0,72,0.00,CLR,,0.00,WeatherDisplay:10.37,2013-01-07 19:19:00,
2013-01-07 14:24:00,35.0,26.9,22.74,WSW,253,3.5,3.5,72,0.00,CLR,,0.00,WeatherDisplay:10.37,2013-01-07 19:24:00,
2013-01-07 14:29:00,35.1,26.6,22.74,WSW,253,3.0,3.0,71,0.00,CLR,,0.00,WeatherDisplay:10.37,2013-01-07 19:29:00,
2013-01-07 14:34:00,35.2,27.1,22.74,WSW,253,0.0,0.0,72,0.00,CLR,,0.00,WeatherDisplay:10.37,2013-01-07 19:34:00,
2013-01-07 14:39:00,35.4,26.9,22.74,WSW,253,0.0,0.0,71,0.00,CLR,,0.00,WeatherDisplay:10.37,2013-01-07 19:39:00,
2013-01-07 14:44:00,35.3,26.8,22.74,WSW,253,4.0,4.0,71,0.00,CLR,,0.00,WeatherDisplay:10.37,2013-01-07 19:44:00,
2013-01-07 14:49:00,35.0,26.5,22.74,WSW,253,4.0,4.0,71,0.00,CLR,,0.00,WeatherDisplay:10.37,2013-01-07 19:49:00,
2013-01-07 14:54:00,34.6,26.5,22.74,WSW,253,1.1,0.0,72,0.00,CLR,,0.00,WeatherDisplay:10.37,2013-01-07 19:54:00,
2013-01-07 14:59:00,34.4,26.6,22.74,WSW,253,0.0,0.0,73,0.00,CLR,,0.00,WeatherDisplay:10.37,2013-01-07 19:59:00,
2013-01-07 15:04:00,34.5,26.4,22.74,SSW,194,3.5,3.5,72,0.00,CLR,,0.00,WeatherDisplay:10.37,2013-01-07 20:04:00,
2013-01-07 15:09:00,34.4,26.3,22.74,SW,214,0.0,0.0,72,0.00,CLR,,0.00,WeatherDisplay:10.37,2013-01-07 20:09:00,
2013-01-07 15:14:00,34.4,26.3,22.74,SW,214,2.3,0.0,72,0.00,CLR,,0.00,WeatherDisplay:10.37,2013-01-07 20:14:00,
2013-01-07 15:19:00,34.4,26.6,22.74,SW,228,5.8,5.8,73,0.00,CLR,,0.00,WeatherDisplay:10.37,2013-01-07 20:19:00,
2013-01-07 15:24:00,34.4,26.6,22.74,WSW,240,3.5,3.5,73,0.00,CLR,,0.00,WeatherDisplay:10.37,2013-01-07 20:24:00,
2013-01-07 15:29:00,34.4,26.6,22.74,WSW,240,2.3,0.0,73,0.00,CLR,,0.00,WeatherDisplay:10.37,2013-01-07 20:29:00,
2013-01-07 15:34:00,34.4,26.0,22.74,WSW,240,0.0,0.0,71,0.00,CLR,,0.00,WeatherDisplay:10.37,2013-01-07 20:34:00,
2013-01-07 15:39:00,34.4,26.3,22.74,WSW,240,4.0,4.0,72,0.00,CLR,,0.00,WeatherDisplay:10.37,2013-01-07 20:39:00,
2013-01-07 15:44:00,34.4,26.3,22.74,WSW,244,5.0,5.0,72,0.00,CLR,,0.00,WeatherDisplay:10.37,2013-01-07 20:44:00,
2013-01-07 15:49:00,34.6,26.5,22.74,WSW,246,3.5,3.5,72,0.00,CLR,,0.00,WeatherDisplay:10.37,2013-01-07 20:49:00,
2013-01-07 15:54:00,34.7,26.6,22.74,WSW,244,4.6,4.6,72,0.00,CLR,,0.00,WeatherDisplay:10.37,2013-01-07 20:54:00,
2013-01-07 15:59:00,34.4,26.3,22.74,SW,220,5.0,5.0,72,0.00,CLR,,0.00,WeatherDisplay:10.37,2013-01-07 20:59:00,
2013-01-07 16:04:00,34.1,26.0,22.74,South,187,4.6,4.6,72,0.00,CLR,,0.00,WeatherDisplay:10.37,2013-01-07 21:04:00,
2013-01-07 16:09:00,34.1,26.3,22.74,SW,215,4.0,4.0,73,0.00,CLR,,0.00,WeatherDisplay:10.37,2013-01-07 21:09:00,
2013-01-07 16:14:00,34.5,26.7,22.74,SW,218,3.5,3.5,73,0.00,CLR,,0.00,WeatherDisplay:10.37,2013-01-07 21:14:00,
2013-01-07 16:19:00,35.0,26.9,22.74,SW,218,3.0,3.0,72,0.00,CLR,,0.00,WeatherDisplay:10.37,2013-01-07 21:19:00,
2013-01-07 16:24:00,35.6,27.5,22.74,SW,218,0.0,0.0,72,0.00,CLR,,0.00,WeatherDisplay:10.37,2013-01-07 21:24:00,
2013-01-07 16:29:00,36.2,27.7,22.74,SW,218,0.0,0.0,71,0.00,CLR,,0.00,WeatherDisplay:10.37,2013-01-07 21:29:00,
2013-01-07 16:34:00,36.2,27.0,22.74,SW,221,4.6,4.6,69,0.00,CLR,,0.00,WeatherDisplay:10.37,2013-01-07 21:34:00,
2013-01-07 16:39:00,35.9,27.1,22.74,SW,221,0.0,0.0,70,0.00,CLR,,0.00,WeatherDisplay:10.37,2013-01-07 21:39:00,
2013-01-07 16:44:00,36.0,27.5,22.74,SW,221,0.0,0.0,71,0.00,CLR,,0.00,WeatherDisplay:10.37,2013-01-07 21:44:00,
2013-01-07 16:49:00,35.9,27.1,22.74,SW,221,0.0,0.0,70,0.00,CLR,,0.00,WeatherDisplay:10.37,2013-01-07 21:49:00,
2013-01-07 16:54:00,35.7,26.9,22.74,SW,221,0.0,0.0,70,0.00,CLR,,0.00,WeatherDisplay:10.37,2013-01-07 21:54:00,
2013-01-07 16:59:00,35.5,27.0,22.74,SW,221,0.0,0.0,71,0.00,CLR,,0.00,WeatherDisplay:10.37,2013-01-07 21:59:00,
2013-01-07 17:04:00,35.3,27.5,22.74,SW,221,0.0,0.0,73,0.00,CLR,,0.00,WeatherDisplay:10.37,2013-01-07 22:04:00,
2013-01-07 17:09:00,35.0,27.5,22.74,SW,221,0.0,0.0,74,0.00,CLR,,0.00,WeatherDisplay:10.37,2013-01-07 22:09:00,
2013-01-07 17:14:00,34.5,27.1,22.74,SW,221,0.0,0.0,74,0.00,CLR,,0.00,WeatherDisplay:10.37,2013-01-07 22:14:00,
2013-01-07 17:19:00,34.4,27.9,22.74,SW,221,0.0,0.0,77,0.00,CLR,,0.00,WeatherDisplay:10.37,2013-01-07 22:19:00,
2013-01-07 17:24:00,33.7,26.3,22.74,SW,221,0.0,0.0,74,0.00,CLR,,0.00,WeatherDisplay:10.37,2013-01-07 22:24:00,
2013-01-07 17:29:00,32.7,25.6,22.74,SW,221,0.0,0.0,75,0.00,CLR,,0.00,WeatherDisplay:10.37,2013-01-07 22:29:00,
2013-01-07 17:34:00,32.1,25.7,22.74,SW,221,0.0,0.0,77,0.00,CLR,,0.00,WeatherDisplay:10.37,2013-01-07 22:34:00,
2013-01-07 17:39:00,31.8,25.7,22.74,SW,221,0.0,0.0,78,0.00,CLR,,0.00,WeatherDisplay:10.37,2013-01-07 22:39:00,
2013-01-07 17:44:00,31.6,25.8,22.74,SW,221,0.0,0.0,79,0.00,CLR,,0.00,WeatherDisplay:10.37,2013-01-07 22:44:00,
2013-01-07 17:49:00,31.3,25.5,22.74,SW,221,0.0,0.0,79,0.00,CLR,,0.00,WeatherDisplay:10.37,2013-01-07 22:49:00,
2013-01-07 17:54:00,31.0,25.2,22.74,SW,221,0.0,0.0,79,0.00,CLR,,0.00,WeatherDisplay:10.37,2013-01-07 22:54:00,
2013-01-07 17:59:00,30.9,26.1,22.74,SW,221,0.0,0.0,82,0.00,CLR,,0.00,WeatherDisplay:10.37,2013-01-07 22:59:00,
2013-01-07 18:05:00,30.6,25.5,22.74,SW,221,0.0,0.0,81,0.00,CLR,,0.00,WeatherDisplay:10.37,2013-01-07 23:05:00,
2013-01-07 18:10:00,30.3,25.5,22.74,SW,221,0.0,0.0,82,0.00,CLR,,0.00,WeatherDisplay:10.37,2013-01-07 23:10:00,
2013-01-07 18:15:00,30.1,25.3,22.74,SW,221,0.0,0.0,82,0.00,CLR,,0.00,WeatherDisplay:10.37,2013-01-07 23:15:00,
2013-01-07 18:20:00,29.9,25.4,22.74,SW,221,0.0,0.0,83,0.00,CLR,,0.00,WeatherDisplay:10.37,2013-01-07 23:20:00,
2013-01-07 18:25:00,29.7,25.2,22.74,SW,221,0.0,0.0,83,0.00,CLR,,0.00,WeatherDisplay:10.37,2013-01-07 23:25:00,
2013-01-07 18:30:00,29.5,25.0,22.74,SW,221,0.0,0.0,83,0.00,CLR,,0.00,WeatherDisplay:10.37,2013-01-07 23:30:00,
2013-01-07 18:35:00,29.3,25.1,22.74,SW,221,0.0,0.0,84,0.00,CLR,,0.00,WeatherDisplay:10.37,2013-01-07 23:35:00,
2013-01-07 18:40:00,29.1,24.9,22.74,SW,221,0.0,0.0,84,0.00,CLR,,0.00,WeatherDisplay:10.37,2013-01-07 23:40:00,
2013-01-07 18:45:00,28.8,24.9,22.74,SW,221,0.0,0.0,85,0.00,CLR,,0.00,WeatherDisplay:10.37,2013-01-07 23:45:00,
2013-01-07 18:50:00,28.6,24.7,22.74,SW,221,0.0,0.0,85,0.00,CLR,,0.00,WeatherDisplay:10.37,2013-01-07 23:50:00,
2013-01-07 18:55:00,28.4,24.7,22.74,SW,221,0.0,0.0,86,0.00,CLR,,0.00,WeatherDisplay:10.37,2013-01-07 23:55:00,
2013-01-07 19:00:00,28.2,24.6,22.74,SW,221,0.0,0.0,86,0.00,CLR,,0.00,WeatherDisplay:10.37,2013-01-08 00:00:00,
2013-01-07 19:05:00,28.0,24.4,22.74,SW,221,0.0,0.0,86,0.00,CLR,,0.00,WeatherDisplay:10.37,2013-01-08 00:05:00,
2013-01-07 19:10:00,27.9,24.3,22.74,SW,221,0.0,0.0,86,0.00,CLR,,0.00,WeatherDisplay:10.37,2013-01-08 00:10:00,
2013-01-07 19:15:00,27.7,24.3,22.74,SW,221,0.0,0.0,87,0.00,CLR,,0.00,WeatherDisplay:10.37,2013-01-08 00:15:00,
2013-01-07 19:20:00,27.6,24.5,22.74,SW,221,0.0,0.0,88,0.00,CLR,,0.00,WeatherDisplay:10.37,2013-01-08 00:20:00,
2013-01-07 19:25:00,27.6,24.5,22.74,SW,221,0.0,0.0,88,0.00,CLR,,0.00,WeatherDisplay:10.37,2013-01-08 00:25:00,
2013-01-07 19:30:00,27.4,24.3,22.74,SW,221,0.0,0.0,88,0.00,CLR,,0.00,WeatherDisplay:10.37,2013-01-08 00:30:00,
2013-01-07 19:35:00,27.4,24.3,22.74,SW,221,0.0,0.0,88,0.00,CLR,,0.00,WeatherDisplay:10.37,2013-01-08 00:35:00,
2013-01-07 19:40:00,27.2,24.1,22.74,SW,221,0.0,0.0,88,0.00,CLR,,0.00,WeatherDisplay:10.37,2013-01-08 00:40:00,
2013-01-07 19:45:00,27.1,24.0,22.74,SW,221,0.0,0.0,88,0.00,CLR,,0.00,WeatherDisplay:10.37,2013-01-08 00:45:00,
2013-01-07 19:50:00,27.0,23.9,22.74,SW,221,0.0,0.0,88,0.00,CLR,,0.00,WeatherDisplay:10.37,2013-01-08 00:50:00,
2013-01-07 19:55:00,26.8,23.7,22.74,SW,221,0.0,0.0,88,0.00,CLR,,0.00,WeatherDisplay:10.37,2013-01-08 00:55:00,
2013-01-07 20:00:00,26.7,23.9,22.74,SW,221,0.0,0.0,89,0.00,CLR,,0.00,WeatherDisplay:10.37,2013-01-08 01:00:00,
2013-01-07 20:05:00,26.8,24.3,22.74,SW,221,0.0,0.0,90,0.00,CLR,,0.00,WeatherDisplay:10.37,2013-01-08 01:05:00,
2013-01-07 20:10:00,26.8,24.3,22.74,SW,221,0.0,0.0,90,0.00,CLR,,0.00,WeatherDisplay:10.37,2013-01-08 01:10:00,
2013-01-07 20:15:00,26.6,24.1,22.74,SW,221,0.0,0.0,90,0.00,CLR,,0.00,WeatherDisplay:10.37,2013-01-08 01:15:00,
2013-01-07 20:20:00,26.4,23.9,22.74,SW,221,0.0,0.0,90,0.00,CLR,,0.00,WeatherDisplay:10.37,2013-01-08 01:20:00,
2013-01-07 20:25:00,26.2,23.7,22.74,SW,221,0.0,0.0,90,0.00,CLR,,0.00,WeatherDisplay:10.37,2013-01-08 01:25:00,
2013-01-07 20:30:00,26.2,23.7,22.74,SW,221,0.0,0.0,90,0.00,CLR,,0.00,WeatherDisplay:10.37,2013-01-08 01:30:00,
2013-01-07 20:35:00,26.1,23.6,22.74,SW,221,0.0,0.0,90,0.00,CLR,,0.00,WeatherDisplay:10.37,2013-01-08 01:35:00,
2013-01-07 20:40:00,26.0,23.5,22.74,SW,221,0.0,0.0,90,0.00,CLR,,0.00,WeatherDisplay:10.37,2013-01-08 01:40:00,
2013-01-07 20:45:00,26.0,23.5,22.74,SW,221,0.0,0.0,90,0.00,CLR,,0.00,WeatherDisplay:10.37,2013-01-08 01:45:00,
2013-01-07 20:50:00,25.8,23.3,22.74,SW,221,0.0,0.0,90,0.00,CLR,,0.00,WeatherDisplay:10.37,2013-01-08 01:50:00,
2013-01-07 20:55:00,25.5,23.0,22.74,SW,221,0.0,0.0,90,0.00,CLR,,0.00,WeatherDisplay:10.37,2013-01-08 01:55:00,
2013-01-07 21:00:00,25.3,22.8,22.74,SW,221,0.0,0.0,90,0.00,CLR,,0.00,WeatherDisplay:10.37,2013-01-08 02:00:00,
2013-01-07 21:05:00,25.1,22.6,22.74,SW,221,0.0,0.0,90,0.00,CLR,,0.00,WeatherDisplay:10.37,2013-01-08 02:05:00,
2013-01-07 21:10:00,25.1,22.8,22.74,SW,221,0.0,0.0,91,0.00,CLR,,0.00,WeatherDisplay:10.37,2013-01-08 02:10:00,
2013-01-07 21:15:00,25.0,22.7,22.74,SW,221,0.0,0.0,91,0.00,CLR,,0.00,WeatherDisplay:10.37,2013-01-08 02:15:00,
2013-01-07 21:20:00,24.8,22.5,22.74,SW,221,0.0,0.0,91,0.00,CLR,,0.00,WeatherDisplay:10.37,2013-01-08 02:20:00,
2013-01-07 21:25:00,24.7,22.4,22.74,SW,221,0.0,0.0,91,0.00,CLR,,0.00,WeatherDisplay:10.37,2013-01-08 02:25:00,
2013-01-07 21:30:00,24.6,22.3,22.74,SW,221,0.0,0.0,91,0.00,CLR,,0.00,WeatherDisplay:10.37,2013-01-08 02:30:00,
2013-01-07 21:35:00,24.6,22.3,22.74,SW,221,0.0,0.0,91,0.00,CLR,,0.00,WeatherDisplay:10.37,2013-01-08 02:35:00,
2013-01-07 21:40:00,24.5,22.2,22.74,SW,221,0.0,0.0,91,0.00,CLR,,0.00,WeatherDisplay:10.37,2013-01-08 02:40:00,
2013-01-07 21:45:00,24.5,22.5,22.74,SW,221,0.0,0.0,92,0.00,CLR,,0.00,WeatherDisplay:10.37,2013-01-08 02:45:00,
2013-01-07 21:50:00,24.4,22.4,22.74,SW,221,0.0,0.0,92,0.00,CLR,,0.00,WeatherDisplay:10.37,2013-01-08 02:50:00,
2013-01-07 21:55:00,24.4,22.4,22.74,SW,221,0.0,0.0,92,0.00,CLR,,0.00,WeatherDisplay:10.37,2013-01-08 02:55:00,
2013-01-07 22:00:00,24.3,22.3,22.74,SW,221,0.0,0.0,92,0.00,CLR,,0.00,WeatherDisplay:10.37,2013-01-08 03:00:00,
2013-01-07 22:05:00,24.3,22.3,22.74,SW,221,0.0,0.0,92,0.00,CLR,,0.00,WeatherDisplay:10.37,2013-01-08 03:05:00,
2013-01-07 22:10:00,24.3,22.3,22.74,SW,221,0.0,0.0,92,0.00,CLR,,0.00,WeatherDisplay:10.37,2013-01-08 03:10:00,
2013-01-07 22:15:00,24.2,22.2,22.74,SW,221,0.0,0.0,92,0.00,CLR,,0.00,WeatherDisplay:10.37,2013-01-08 03:15:00,
2013-01-07 22:20:00,24.2,22.2,22.74,SW,221,0.0,0.0,92,0.00,CLR,,0.00,WeatherDisplay:10.37,2013-01-08 03:20:00,
2013-01-07 22:25:00,24.2,22.2,22.74,SW,221,0.0,0.0,92,0.00,CLR,,0.00,WeatherDisplay:10.37,2013-01-08 03:25:00,
2013-01-07 22:30:00,24.0,22.0,22.74,SW,221,0.0,0.0,92,0.00,CLR,,0.00,WeatherDisplay:10.37,2013-01-08 03:30:00,
2013-01-07 22:35:00,23.9,21.9,22.74,SW,221,0.0,0.0,92,0.00,CLR,,0.00,WeatherDisplay:10.37,2013-01-08 03:35:00,
2013-01-07 22:40:00,23.8,21.8,22.74,SW,221,0.0,0.0,92,0.00,CLR,,0.00,WeatherDisplay:10.37,2013-01-08 03:40:00,
2013-01-07 22:45:00,23.6,21.6,22.74,SW,221,0.0,0.0,92,0.00,CLR,,0.00,WeatherDisplay:10.37,2013-01-08 03:45:00,
2013-01-07 22:50:00,23.5,21.5,22.74,SW,221,0.0,0.0,92,0.00,CLR,,0.00,WeatherDisplay:10.37,2013-01-08 03:50:00,
2013-01-07 22:55:00,23.4,21.4,22.74,SW,221,0.0,0.0,92,0.00,CLR,,0.00,WeatherDisplay:10.37,2013-01-08 03:55:00,
2013-01-07 23:00:00,23.3,21.3,22.74,SW,221,0.0,0.0,92,0.00,CLR,,0.00,WeatherDisplay:10.37,2013-01-08 04:00:00,
2013-01-07 23:05:00,23.2,21.2,22.74,SW,221,0.0,0.0,92,0.00,CLR,,0.00,WeatherDisplay:10.37,2013-01-08 04:05:00,
2013-01-07 23:10:00,23.3,21.3,22.74,SW,221,0.0,0.0,92,0.00,CLR,,0.00,WeatherDisplay:10.37,2013-01-08 04:10:00,
2013-01-07 23:15:00,23.3,21.6,22.74,SW,221,0.0,0.0,93,0.00,CLR,,0.00,WeatherDisplay:10.37,2013-01-08 04:15:00,
2013-01-07 23:20:00,23.4,21.7,22.74,SW,221,0.0,0.0,93,0.00,CLR,,0.00,WeatherDisplay:10.37,2013-01-08 04:20:00,
2013-01-07 23:25:00,23.5,21.8,22.74,SW,221,0.0,0.0,93,0.00,CLR,,0.00,WeatherDisplay:10.37,2013-01-08 04:25:00,
2013-01-07 23:30:00,23.3,21.6,22.74,SW,221,0.0,0.0,93,0.00,CLR,,0.00,WeatherDisplay:10.37,2013-01-08 04:30:00,
2013-01-07 23:35:00,23.0,21.3,22.74,SW,221,0.0,0.0,93,0.00,CLR,,0.00,WeatherDisplay:10.37,2013-01-08 04:35:00,
2013-01-07 23:41:00,22.9,21.2,22.74,SW,221,0.0,0.0,93,0.00,CLR,,0.00,WeatherDisplay:10.37,2013-01-08 04:41:00,
2013-01-07 23:46:00,22.8,21.1,22.74,SW,221,0.0,0.0,93,0.00,CLR,,0.00,WeatherDisplay:10.37,2013-01-08 04:46:00,
2013-01-07 23:51:00,22.8,21.1,22.74,SW,221,0.0,0.0,93,0.00,CLR,,0.00,WeatherDisplay:10.37,2013-01-08 04:51:00,
2013-01-07 23:56:00,22.6,20.9,22.74,SW,221,0.0,0.0,93,0.00,CLR,,0.00,WeatherDisplay:10.37,2013-01-08 04:56:00,